Location: Mohawk View
(42.7837°N, 73.7885°W)
Time: 00:44:57
(UTC+00:00)

Meteor 2-10 - Pass Details

Date: 17 June 2021
Orbit: 738 x 868 km, 81.2° (Epoch: 02 August)

Event Time Altitude Azimuth Distance (km) Brightness Sun altitude
Rises 01:37:54 0° 346° (NNW) 3,184 8.3 -9.6°
Reaches altitude 10° 01:40:14 10° 343° (NNW) 2,261 7.5 -9.9°
Maximum altitude 01:45:13 60° 264° (W) 855 4.5 -10.6°
Drops below altitude 10° 01:50:15 10° 185° (S) 2,291 6.1 -11.2°
Enters shadow 01:51:31 - 183° (S) 2,787 6.5 -11.4°
